Погода в Велинграде

Болгария     42°01′35″N   23°59′29″E
темп.,
°C
ветер,
м/с
пор.,
м/с
влажн.,
%
обл.,
%
осадки,
мм/ч
давл.,
гПа
погр.,
м
11 апреля, вс
вс1100:00+1ююз116790 0.0 102611
03:000ююз11731 0.0 102611
06:000юз11741 0.0 102612
09:00+5всв11530 0.0 1025319
12:00+9св32452 0.0 10231064
15:00+11св32422 0.0 10221131
18:00+9св33493 0.0 1022759
21:00+3ююв11723 0.0 102610
12 апреля, пн
пн1200:00+2ююз11741 0.0 102711
03:00+2юз22804 0.0 102621
06:00+2ююз228622 0.0 102520
09:00+8ссв01605 0.0 1023283
12:00+14св21435 0.0 1021958
15:00+15св334433 0.0 10191413
18:00+11св2260100 0.0 1019415
21:00+8в1177100 0.0 102117
13 апреля, вт
вт1300:00+6юз218871 0.0 102113
03:00+5юз229244 0.0 102019
06:00+5юз229018 0.0 101924
09:00+10зюз1270100 0.0 1017257
12:00+14ссв2353100 0.1 10151208
15:00+12св0269100 1.1 1014784
18:00+11з027799 1.3 1013597
21:00+8юз1392100 2.0 1013160
14 апреля, ср
ср1400:00+6юз229359 0.4 101361
03:00+7юз1191100 1.4 101237
06:00+4юз229619 2.1 101323
09:00+7юз1181100 4.8 1012191
12:00+9ссв2268100 2.3 1010951
15:00+7с3486100 6.3 1011881
18:00+3св2297100 4.3 1014391
21:00+2всв129578 4.4 1016216
15 апреля, чт
чт1500:00+1в119563 0.0 101770
03:00+1сз119036 0.0 101787
06:00−2зюз11955 0.0 101910
09:00+3ссв117612 0.0 1018423
12:00+8ссв235247 0.0 10161287
15:00+10св434986 0.1 10151608
18:00+6св2272100 0.3 1016838
21:00+3всв128788 0.6 1018252